CW9790 Weather Reports


Display with metric or nautical units.
time (UTC)temp
F
wind
direction
speed
MPH
gust
MPH
rain 1hr
in
rain 24hr
in
rain mn
in
humidity
%
barometer
mb
20260904160016 81 135 2.0 5.0 0.00 0.00 0.00 79 1013.6
20260904155016 81 135 2.0 6.0 0.00 0.00 0.00 80 1013.5
20260904154023 80 135 3.0 6.0 0.00 0.00 0.00 81 1013.6
20260904153016 80 158 1.0 6.0 0.00 0.00 0.00 84 1013.2
20260904152016 79 135 2.0 5.0 0.00 0.00 0.00 84 1013.1
20260904151016 78 135 1.0 6.0 0.00 0.00 0.00 85 1013.2
20260904150017 78 135 2.0 6.0 0.00 0.00 0.00 86 1013.2
20260904145016 78 135 2.0 6.0 0.00 0.00 0.00 87 1013.2
20260904144016 78 135 2.0 6.0 0.00 0.00 0.00 88 1013.3
20260904143016 77 135 2.0 5.0 0.00 0.00 0.00 89 1013.2
20260904142016 77 135 2.0 7.0 0.00 0.00 0.00 91 1013.2
20260904141016 76 158 2.0 8.0 0.00 0.00 0.00 91 1013.1
20260904140036 76 135 2.0 7.0 0.00 0.00 0.00 92 1012.9
20260904135018 75 135 2.0 7.0 0.00 0.00 0.00 92 1012.6
20260904134018 75 113 1.0 5.0 0.00 0.00 0.00 92 1012.7
20260904133019 75 135 2.0 5.0 0.00 0.00 0.00 92 1012.5
20260904132018 75 158 1.0 4.0 0.00 0.00 0.00 92 1012.5
20260904131058 75 158 1.0 5.0 0.00 0.00 0.00 92 1012.3
20260904130017 74 135 1.0 5.0 0.00 0.00 0.00 92 1012.1
20260904125018 74 135 2.0 5.0 0.00 0.00 0.00 92 1012.1
20260904124017 74 135 1.0 4.0 0.00 0.00 0.00 92 1012.2
20260904123038 74 158 1.0 5.0 0.00 0.00 0.00 91 1011.9
20260904122018 74 135 1.0 5.0 0.00 0.00 0.00 91 1011.7
20260904121038 74 158 1.0 4.0 0.00 0.00 0.00 91 1011.7
20260904120018 74 180 1.0 3.0 0.00 0.00 0.00 90 1011.5
20260904115019 74 203 1.0 4.0 0.00 0.00 0.00 90 1011.7
20260904114018 74 158 1.0 5.0 0.00 0.00 0.00 90 1011.6
20260904113017 74 158 1.0 5.0 0.00 0.00 0.00 90 1011.6
20260904112017 74 135 1.0 7.0 0.00 0.00 0.00 90 1011.6
20260904111017 75 135 1.0 5.0 0.00 0.00 0.00 89 1011.7
20260904110019 75 158 1.0 5.0 0.00 0.00 0.00 89 1011.7
20260904105018 75 135 1.0 5.0 0.00 0.00 0.00 89 1011.8
20260904104037 75 135 1.0 6.0 0.00 0.00 0.00 89 1011.9
20260904103017 75 158 2.0 5.0 0.00 0.00 0.00 89 1011.9
20260904102017 75 158 1.0 5.0 0.00 0.00 0.00 89 1012.0
20260904101017 75 135 2.0 6.0 0.00 0.00 0.00 89 1011.9
20260904100018 75 135 2.0 6.0 0.00 0.00 0.00 89 1011.9
20260904095018 75 180 2.0 7.0 0.00 0.00 0.00 88 1011.8
20260904094017 75 135 2.0 7.0 0.00 0.00 0.00 88 1011.8
20260904093018 75 135 2.0 7.0 0.00 0.00 0.00 88 1011.8
20260904092017 75 135 3.0 7.0 0.00 0.00 0.00 88 1011.9
20260904091018 76 180 3.0 11.0 0.00 0.00 0.00 88 1011.9
20260904090017 76 180 2.0 10.0 0.00 0.00 0.00 88 1012.1
20260904085018 76 135 1.0 5.0 0.00 0.00 0.00 87 1011.8
20260904084017 76 158 2.0 6.0 0.00 0.00 0.00 87 1011.9
20260904083017 76 135 2.0 6.0 0.00 0.00 0.00 86 1011.8
20260904082016 76 135 3.0 9.0 0.00 0.00 0.00 86 1011.9
20260904081017 76 135 2.0 6.0 0.00 0.00 0.00 86 1011.9
20260904080017 76 135 2.0 11.0 0.00 0.00 0.00 85 1012.0
20260904075017 77 135 3.0 7.0 0.00 0.00 0.00 85 1012.1
20260904074017 77 135 3.0 10.0 0.00 0.00 0.00 84 1012.1
20260904073017 77 158 2.0 7.0 0.00 0.00 0.00 84 1012.3
20260904072037 77 158 2.0 5.0 0.00 0.00 0.00 83 1012.4
20260904071037 78 158 3.0 9.0 0.00 0.00 0.00 83 1012.4
20260904070017 78 158 3.0 9.0 0.00 0.00 0.00 82 1012.3
20260904065038 78 158 2.0 7.0 0.00 0.00 0.00 81 1012.3
20260904064017 79 180 3.0 13.0 0.00 0.00 0.00 80 1012.4
20260904063017 79 135 4.0 17.0 0.00 0.00 0.00 78 1012.4
20260904062017 79 135 3.0 11.0 0.00 0.00 0.00 75 1012.3
20260904061016 80 135 2.0 12.0 0.00 0.00 0.00 73 1012.0
20260904060017 80 113 3.0 11.0 0.00 0.00 0.00 71 1012.2
20260904055017 80 135 2.0 10.0 0.00 0.00 0.00 69 1012.2
20260904054016 80 135 3.0 11.0 0.00 0.00 0.00 67 1012.0
20260904053016 81 135 3.0 10.0 0.00 0.00 0.00 66 1011.8
20260904052016 81 135 3.0 9.0 0.00 0.00 0.00 65 1011.8
20260904051017 81 158 3.0 10.0 0.00 0.00 0.00 65 1011.5
20260904050017 81 158 2.0 8.0 0.00 0.00 0.00 66 1011.6
20260904045018 81 135 3.0 13.0 0.00 0.00 0.00 66 1011.7
20260904044019 82 113 3.0 8.0 0.00 0.00 0.00 65 1011.5
20260904043019 82 158 2.0 9.0 0.00 0.00 0.00 65 1011.6
20260904042018 82 135 2.0 7.0 0.00 0.00 0.00 64 1011.5
20260904041018 82 135 3.0 10.0 0.00 0.00 0.00 64 1011.3
20260904040018 83 135 2.0 7.0 0.00 0.00 0.00 63 1011.4
20260904035016 83 135 3.0 10.0 0.00 0.00 0.00 63 1011.5
20260904034018 83 180 2.0 11.0 0.00 0.00 0.00 64 1011.2
20260904033038 83 135 2.0 6.0 0.00 0.00 0.00 64 1011.1
20260904032018 83 113 3.0 9.0 0.00 0.00 0.00 64 1011.0
20260904031017 84 135 3.0 10.0 0.00 0.00 0.00 64 1010.9
20260904030017 84 113 3.0 12.0 0.00 0.00 0.00 63 1010.6
20260904025017 84 135 2.0 7.0 0.00 0.00 0.00 62 1010.6
20260904024017 85 135 2.0 6.0 0.00 0.00 0.00 61 1010.4
20260904023018 86 90 3.0 9.0 0.00 0.00 0.00 59 1010.2
20260904022018 87 113 3.0 9.0 0.00 0.00 0.00 57 1010.0
20260904021018 87 90 3.0 10.0 0.00 0.00 0.00 55 1009.8
20260904020018 88 135 3.0 10.0 0.00 0.00 0.00 54 1009.4
20260904015018 88 90 2.0 14.0 0.00 0.00 0.00 53 1009.4
20260904014017 88 113 2.0 5.0 0.00 0.00 0.00 53 1009.2
20260904013040 88 90 1.0 7.0 0.00 0.00 0.00 51 1009.0
20260904012017 89 135 1.0 3.0 0.00 0.00 0.00 49 1009.0
20260904011018 89 135 1.0 3.0 0.00 0.00 0.00 48 1008.9
20260904010017 90 113 1.0 4.0 0.00 0.00 0.00 47 1008.9
20260904005017 91 135 1.0 4.0 0.00 0.00 0.00 47 1008.9
20260904004037 91 0.0 3.0 0.00 0.00 0.00 45 1009.0
20260904003017 92 135 1.0 3.0 0.00 0.00 0.00 45 1009.0
20260904002017 93 158 2.0 5.0 0.00 0.00 0.00 43 1008.9
20260904001017 94 135 2.0 7.0 0.00 0.00 0.00 43 1009.0
20260904000037 95 135 2.0 5.0 0.00 0.00 0.00 42 1009.0
20260903235018 95 113 2.0 5.0 0.00 0.00 0.00 41 1009.0
20260903234017 96 135 3.0 7.0 0.00 0.00 0.00 40 1009.0
20260903233017 96 135 2.0 9.0 0.00 0.00 0.00 40 1009.0
20260903232018 97 113 2.0 11.0 0.00 0.00 0.00 40 1008.9
20260903231018 97 180 2.0 4.0 0.00 0.00 0.00 39 1008.8
20260903230024 98 68 2.0 7.0 0.00 0.00 0.00 39 1008.9
20260903225017 97 135 1.0 6.0 0.00 0.00 0.00 38 1008.8
20260903224017 98 135 1.0 5.0 0.00 0.00 0.00 36 1008.8
20260903223017 99 158 1.0 5.0 0.00 0.00 0.00 35 1008.6
20260903222017 100 158 2.0 7.0 0.00 0.00 0.00 34 1008.7
20260903221017 102 158 3.0 9.0 0.00 0.00 0.00 32 1008.8
20260903220017 103 135 3.0 10.0 0.00 0.00 0.00 31 1008.9
20260903215017 102 135 2.0 6.0 0.00 0.00 0.00 33 1009.1
20260903214017 101 113 2.0 5.0 0.00 0.00 0.00 33 1009.1
20260903213017 102 135 3.0 10.0 0.00 0.00 0.00 32 1009.2
20260903212018 103 158 2.0 5.0 0.00 0.00 0.00 33 1009.4
20260903211017 102 158 2.0 7.0 0.00 0.00 0.00 30 1009.2
20260903210037 102 158 2.0 5.0 0.00 0.00 0.00 30 1009.6
20260903205017 102 135 2.0 6.0 0.00 0.00 0.00 32 1009.7
20260903204018 102 225 2.0 8.0 0.00 0.00 0.00 34 1009.8
20260903203017 102 180 2.0 7.0 0.00 0.00 0.00 31 1010.0
20260903202037 102 45 2.0 6.0 0.00 0.00 0.00 32 1010.1
20260903201036 103 135 2.0 10.0 0.00 0.00 0.00 33 1010.2
20260903200017 102 135 2.0 5.0 0.00 0.00 0.00 33 1010.3
20260903195017 102 113 2.0 6.0 0.00 0.00 0.00 36 1010.7
20260903194016 101 135 2.0 7.0 0.00 0.00 0.00 35 1010.8
20260903193016 101 158 3.0 8.0 0.00 0.00 0.00 36 1010.9
20260903192056 101 135 3.0 8.0 0.00 0.00 0.00 36 1011.0
20260903191016 101 135 3.0 8.0 0.00 0.00 0.00 37 1011.2
20260903190016 100 135 3.0 12.0 0.00 0.00 0.00 38 1011.4
20260903185036 100 158 3.0 11.0 0.00 0.00 0.00 39 1011.6
20260903184017 99 135 3.0 10.0 0.00 0.00 0.00 37 1011.6
20260903183017 98 135 3.0 7.0 0.00 0.00 0.00 39 1011.8
20260903182037 98 135 3.0 9.0 0.00 0.00 0.00 40 1012.0
20260903181016 98 158 3.0 6.0 0.00 0.00 0.00 40 1012.1
20260903180016 97 135 3.0 7.0 0.00 0.00 0.00 39 1012.3
20260903175016 97 135 3.0 7.0 0.00 0.00 0.00 42 1012.5
20260903174017 96 135 3.0 10.0 0.00 0.00 0.00 45 1012.6
20260903173016 96 203 3.0 8.0 0.00 0.00 0.00 45 1012.7
20260903172016 96 135 2.0 5.0 0.00 0.00 0.00 46 1012.8
20260903171016 95 135 3.0 10.0 0.00 0.00 0.00 47 1012.9
20260903170016 94 158 2.0 6.0 0.00 0.00 0.00 49 1012.7
20260903165016 93 135 3.0 9.0 0.00 0.00 0.00 50 1012.7
20260903164016 92 180 4.0 11.0 0.00 0.00 0.00 51 1012.7
20260903163036 91 180 3.0 9.0 0.00 0.00 0.00 55 1012.7
20260903162018 91 180 3.0 7.0 0.00 0.00 0.00 55 1012.7
20260903161017 90 180 3.0 8.0 0.00 0.00 0.00 58 1012.6